Regional Weather Roundup
Issued by NWS Midland/Odessa, TX

Skip options and go directly to product.
Home | Oldest Version | Previous Version | Current Version | All | Text Only | Save Text | Print | Product List | Glossary On

Skip product version selection by date and time.   
624
ASUS44 KMAF 271302
RWRMAF
MIDLAND AREA WEATHER ROUNDUP
NATIONAL WEATHER SERVICE MIDLAND TX
800 AM CDT WED AUG 27 2014

...IN SOUTHWEST TEXAS AND SOUTHEAST NEW MEXICO...

CITY           SKY/WX    TMP DP  RH WIND       PRES   REMARKS
ALPINE         CLEAR     63  55  73 SW7       30.25R
ANDREWS        FAIR      71  58  64 CALM      30.14R
ARTESIA        NOT AVBL
BIG SPRING     CLEAR     79  64  60 SE9       30.12R
CARLSBAD       MOCLDY    72  64  76 NW7       30.12R
DRYDEN           N/A     78  65  63 N3        30.06R
FORT STOCKTON  CLEAR     69  57  65 S5        30.12R
GUAD PASS      CLOUDY    63  60  90 S10       30.27R
HOBBS          PTCLDY    68  63  83 CALM      30.15R
MARFA          CLEAR     57  54  88 N7        30.24R
MIDLAND AIRPK  CLEAR     75  57  52 SE6       30.12R
MIDLAND INTL   CLEAR     74  56  53 S6        30.11R
ODESSA         CLEAR     74  55  51 CALM      30.12R
PECOS          CLEAR     69  63  81 NW6       30.09R
PRESIDIO       FAIR      76  55  48 N8        30.08R
SEMINOLE       CLEAR     72  58  62 S5        30.15R
SNYDER         CLEAR     74  64  72 S6        30.11R
WINK           CLEAR     76  56  49 SE12      30.08R
$$
...OTHER STATIONS IN TEXAS...

CITY           SKY/WX    TMP DP  RH WIND       PRES   REMARKS
ABILENE        CLEAR     75  66  73 SE8       30.08R
AMARILLO       CLOUDY    67  65  93 E9        30.17R
AUSTIN         MOSUNNY   76  72  87 CALM      30.02R
BROWNSVILLE    SUNNY     79  76  90 NW6       29.93R
CORPUS CHRISTI MOSUNNY   79  75  87 N6        29.94S
DALLAS FTW     SUNNY     79  71  76 SE5       30.05R
DEL RIO        CLEAR     80  69  69 E6        30.01R
EL PASO        CLOUDY    69  67  93 CALM      30.17R
HOUSTON INT    PTSUNNY   77  72  83 NE7       29.99R
LUBBOCK        CLOUDY    73  63  70 SE10      30.13R
SAN ANGELO     CLEAR     73  64  73 CALM      30.08R
SAN ANTONIO    SUNNY     78  71  79 CALM      30.02R
WACO           SUNNY     76  70  82 E3        30.03R
WICHITA FALLS  NOT AVBL
$$
...OTHER LOCATIONS IN NEW MEXICO...

CITY           SKY/WX    TMP DP  RH WIND       PRES   REMARKS
ALAMAGORDO     CLOUDY    66  63  88 N8        30.20S
ALBUQUERQUE    PTCLDY    60  57  89 SW3       30.30R
CANNON AFB     MOCLDY    66  61  82 NW1       30.22R
CLOVIS           N/A     66  61  82 CALM      30.24R
HOLLOMAN AFB   MOCLDY    65  65 100 NE5       30.18F
ROSWELL        MOCLDY    70  63  78 N7        30.17R
RUIDOSO        LGT RAIN  55  54  94 NW8       30.39R
SANTA FE       MOCLDY    56  55  97 W3        30.32R
TRUTH OR CONSE PTCLDY    61  60  97 N8        30.24R
TUCUMCARI        N/A     68  63  84 NW6       30.18R
$$

USA.gov is the U.S. government's official web portal to all federal, state and local government web resources and services.